Zurück zum Katalog

BREEZE-M DEB

AktivHEO
NORAD 38592·DEBRIS·🇷🇺 Russia

Gestartet Mar 14, 2008 von Baikonur Cosmodrome

Loading…

Nächste Überflüge (nächste 24 Stunden)

TLE

AktuellSource: Space-Track

Epoche: Sep 14, 2026, 09:37 UTC

1 38592U 08011AP  26257.40113502  .00000222  00000-0  19587-2 0  9993
2 38592  48.7439 201.9384 6425491  41.4510  56.8273  3.16128381174205

Verfolge BREEZE-M DEB in Echtzeit mit AllMySat

Download on the App Store